| time (UTC) | temp F | wind direction | speed knots | gust knots | rain 1hr in | rain 24hr in | rain mn in | humidity % | barometer mb |
| 20260505200007 | 51 | 45 | 0.9 | 1.7 | 0.00 | 0.00 | 0.00 | 71 | 1016.0 |
| 20260505195808 | 51 | 45 | 0.9 | 1.7 | 0.00 | 0.00 | 0.00 | 71 | 1016.0 |
| 20260505195608 | 51 | 45 | 0.9 | 2.6 | 0.00 | 0.00 | 0.00 | 71 | 1016.0 |
| 20260505195408 | 51 | 45 | 1.7 | 2.6 | 0.00 | 0.00 | 0.00 | 71 | 1016.0 |
| 20260505195208 | 51 | 45 | 1.7 | 2.6 | 0.00 | 0.00 | 0.00 | 71 | 1016.0 |
| 20260505194808 | 51 | 45 | 1.7 | 3.5 | 0.00 | 0.00 | 0.00 | 71 | 1016.0 |
| 20260505194408 | 51 | 45 | 1.7 | 3.5 | 0.00 | 0.00 | 0.00 | 70 | 1016.0 |
| 20260505194208 | 52 | 45 | 1.7 | 4.3 | 0.00 | 0.00 | 0.00 | 71 | 1016.0 |
| 20260505194008 | 52 | 46 | 1.7 | 4.3 | 0.00 | 0.00 | 0.00 | 70 | 1015.9 |
| 20260505193807 | 52 | 45 | 0.9 | 4.3 | 0.00 | 0.00 | 0.00 | 70 | 1016.0 |
| 20260505193607 | 52 | 46 | 0.9 | 4.3 | 0.00 | 0.00 | 0.00 | 70 | 1015.9 |
| 20260505193407 | 52 | 46 | 0.0 | 4.3 | 0.00 | 0.00 | 0.00 | 70 | 1015.9 |
| 20260505193207 | 52 | 45 | 0.0 | 2.6 | 0.00 | 0.00 | 0.00 | 70 | 1016.1 |
| 20260505193009 | 52 | 45 | 0.0 | 2.6 | 0.00 | 0.00 | 0.00 | 70 | 1016.1 |
| 20260505192807 | 52 | 45 | 0.0 | 2.6 | 0.00 | 0.00 | 0.00 | 70 | 1016.1 |
| 20260505192607 | 52 | 0 | 0.0 | 0.0 | 0.00 | 0.00 | 0.00 | 70 | 1016.1 |
| 20260505192408 | 52 | 0 | 0.0 | 0.0 | 0.00 | 0.00 | 0.00 | 70 | 1016.0 |
| 20260505192208 | 52 | 0 | 0.0 | 0.0 | 0.00 | 0.00 | 0.00 | 70 | 1016.0 |
| 20260505192008 | 52 | 0 | 0.0 | 0.0 | 0.00 | 0.00 | 0.00 | 69 | 1015.9 |
| 20260505191808 | 52 | 0 | 0.0 | 0.0 | 0.00 | 0.00 | 0.00 | 70 | 1015.8 |
| 20260505191608 | 52 | 0 | 0.0 | 0.0 | 0.00 | 0.00 | 0.00 | 69 | 1015.8 |
| 20260505191408 | 52 | 0 | 0.0 | 0.0 | 0.00 | 0.00 | 0.00 | 69 | 1015.8 |
| 20260505191208 | 52 | 0 | 0.0 | 0.0 | 0.00 | 0.00 | 0.00 | 69 | 1015.9 |
| 20260505190808 | 52 | 45 | 0.9 | 0.9 | 0.00 | 0.00 | 0.00 | 71 | 1015.6 |
| 20260505190608 | 52 | 45 | 0.9 | 1.7 | 0.00 | 0.00 | 0.00 | 71 | 1015.5 |
| 20260505190408 | 52 | 45 | 1.7 | 2.6 | 0.00 | 0.00 | 0.00 | 71 | 1015.4 |
| 20260505190208 | 52 | 45 | 1.7 | 2.6 | 0.00 | 0.00 | 0.00 | 70 | 1015.5 |
| 20260505190008 | 52 | 45 | 1.7 | 2.6 | 0.00 | 0.00 | 0.00 | 70 | 1015.5 |
| 20260505185808 | 52 | 45 | 1.7 | 2.6 | 0.00 | 0.00 | 0.00 | 70 | 1015.5 |
| 20260505185408 | 52 | 45 | 1.7 | 3.5 | 0.00 | 0.00 | 0.00 | 70 | 1015.7 |
| 20260505185008 | 52 | 45 | 2.6 | 3.5 | 0.00 | 0.00 | 0.00 | 69 | 1015.7 |
| 20260505184808 | 53 | 45 | 2.6 | 3.5 | 0.00 | 0.00 | 0.00 | 69 | 1015.7 |
| 20260505184608 | 53 | 45 | 2.6 | 3.5 | 0.00 | 0.00 | 0.00 | 69 | 1015.7 |
| 20260505184408 | 53 | 45 | 2.6 | 3.5 | 0.00 | 0.00 | 0.00 | 70 | 1015.7 |
| 20260505184208 | 53 | 45 | 2.6 | 3.5 | 0.00 | 0.00 | 0.00 | 70 | 1015.8 |
| 20260505184008 | 53 | 45 | 2.6 | 3.5 | 0.00 | 0.00 | 0.00 | 70 | 1015.7 |
| 20260505183808 | 53 | 45 | 2.6 | 3.5 | 0.00 | 0.00 | 0.00 | 71 | 1015.8 |
| 20260505183608 | 53 | 45 | 2.6 | 3.5 | 0.00 | 0.00 | 0.00 | 70 | 1015.9 |
| 20260505183408 | 53 | 45 | 2.6 | 5.2 | 0.00 | 0.00 | 0.00 | 70 | 1015.8 |
| 20260505183208 | 53 | 45 | 2.6 | 5.2 | 0.00 | 0.00 | 0.00 | 69 | 1015.8 |
| 20260505183008 | 53 | 45 | 2.6 | 5.2 | 0.00 | 0.00 | 0.00 | 69 | 1015.8 |
| 20260505182808 | 53 | 45 | 2.6 | 5.2 | 0.00 | 0.00 | 0.00 | 69 | 1015.8 |
| 20260505182608 | 53 | 45 | 2.6 | 5.2 | 0.00 | 0.00 | 0.00 | 67 | 1015.7 |
| 20260505182407 | 53 | 46 | 2.6 | 4.3 | 0.00 | 0.00 | 0.00 | 66 | 1015.8 |
| 20260505182207 | 53 | 46 | 3.5 | 5.2 | 0.00 | 0.00 | 0.00 | 65 | 1015.8 |
| 20260505182008 | 53 | 45 | 3.5 | 5.2 | 0.00 | 0.00 | 0.00 | 66 | 1015.7 |
| 20260505181808 | 53 | 46 | 3.5 | 5.2 | 0.00 | 0.00 | 0.00 | 64 | 1015.7 |
| 20260505181608 | 53 | 46 | 3.5 | 5.2 | 0.00 | 0.00 | 0.00 | 63 | 1015.7 |
| 20260505181407 | 54 | 46 | 3.5 | 5.2 | 0.00 | 0.00 | 0.00 | 64 | 1015.9 |
| 20260505181207 | 54 | 46 | 3.5 | 6.1 | 0.00 | 0.00 | 0.00 | 64 | 1015.8 |
| 20260505181008 | 54 | 45 | 3.5 | 6.1 | 0.00 | 0.00 | 0.00 | 64 | 1015.8 |
| 20260505180808 | 54 | 45 | 3.5 | 6.1 | 0.00 | 0.00 | 0.00 | 63 | 1015.8 |
| 20260505180607 | 54 | 45 | 3.5 | 6.1 | 0.00 | 0.00 | 0.00 | 64 | 1015.9 |
| 20260505180408 | 54 | 45 | 4.3 | 7.0 | 0.00 | 0.00 | 0.00 | 65 | 1015.9 |
| 20260505180207 | 54 | 45 | 4.3 | 7.0 | 0.00 | 0.00 | 0.00 | 65 | 1015.9 |
| 20260505175807 | 54 | 45 | 4.3 | 7.0 | 0.00 | 0.00 | 0.00 | 62 | 1015.9 |
| 20260505175607 | 54 | 45 | 3.5 | 7.8 | 0.00 | 0.00 | 0.00 | 62 | 1016.0 |
| 20260505175207 | 54 | 45 | 3.5 | 7.8 | 0.00 | 0.00 | 0.00 | 62 | 1015.9 |
| 20260505175007 | 54 | 45 | 2.6 | 7.8 | 0.00 | 0.00 | 0.00 | 64 | 1016.0 |
| 20260505174607 | 54 | 45 | 2.6 | 5.2 | 0.00 | 0.00 | 0.00 | 65 | 1015.9 |
| 20260505174407 | 54 | 45 | 2.6 | 5.2 | 0.00 | 0.00 | 0.00 | 66 | 1015.9 |
| 20260505174007 | 54 | 45 | 2.6 | 4.3 | 0.00 | 0.00 | 0.00 | 65 | 1016.0 |
| 20260505173807 | 54 | 46 | 2.6 | 4.3 | 0.00 | 0.00 | 0.00 | 65 | 1016.0 |
| 20260505173607 | 54 | 45 | 3.5 | 4.3 | 0.00 | 0.00 | 0.00 | 65 | 1015.9 |
| 20260505173407 | 54 | 45 | 3.5 | 5.2 | 0.00 | 0.00 | 0.00 | 66 | 1015.9 |
| 20260505173207 | 54 | 45 | 3.5 | 5.2 | 0.00 | 0.00 | 0.00 | 65 | 1015.8 |
| 20260505173008 | 54 | 45 | 3.5 | 5.2 | 0.00 | 0.00 | 0.00 | 66 | 1015.9 |
| 20260505172807 | 54 | 46 | 3.5 | 5.2 | 0.00 | 0.00 | 0.00 | 66 | 1015.9 |
| 20260505172607 | 54 | 46 | 4.3 | 5.2 | 0.00 | 0.00 | 0.00 | 67 | 1016.0 |
| 20260505172407 | 54 | 46 | 4.3 | 5.2 | 0.00 | 0.00 | 0.00 | 66 | 1016.0 |
| 20260505172207 | 54 | 46 | 4.3 | 7.0 | 0.00 | 0.00 | 0.00 | 65 | 1016.0 |
| 20260505172008 | 54 | 46 | 4.3 | 7.0 | 0.00 | 0.00 | 0.00 | 66 | 1015.9 |
| 20260505171807 | 54 | 46 | 4.3 | 7.8 | 0.00 | 0.00 | 0.00 | 66 | 1015.9 |
| 20260505171607 | 54 | 46 | 4.3 | 7.8 | 0.00 | 0.00 | 0.00 | 66 | 1016.0 |
| 20260505171408 | 54 | 46 | 4.3 | 7.8 | 0.00 | 0.00 | 0.00 | 65 | 1016.0 |
| 20260505171207 | 54 | 45 | 4.3 | 7.8 | 0.00 | 0.00 | 0.00 | 65 | 1016.0 |
| 20260505171007 | 54 | 45 | 5.2 | 7.8 | 0.00 | 0.00 | 0.00 | 65 | 1015.9 |
| 20260505170807 | 54 | 46 | 5.2 | 7.0 | 0.00 | 0.00 | 0.00 | 66 | 1016.0 |
| 20260505170607 | 54 | 45 | 5.2 | 7.0 | 0.00 | 0.00 | 0.00 | 65 | 1016.0 |
| 20260505170408 | 54 | 46 | 5.2 | 7.0 | 0.00 | 0.00 | 0.00 | 66 | 1016.0 |
| 20260505170207 | 54 | 45 | 5.2 | 7.0 | 0.00 | 0.00 | 0.00 | 66 | 1016.0 |
| 20260505165807 | 54 | 46 | 5.2 | 7.0 | 0.00 | 0.00 | 0.00 | 66 | 1016.1 |
| 20260505165607 | 54 | 46 | 4.3 | 7.0 | 0.00 | 0.00 | 0.00 | 67 | 1016.1 |
| 20260505165207 | 54 | 46 | 5.2 | 7.0 | 0.00 | 0.00 | 0.00 | 67 | 1016.2 |
| 20260505165007 | 54 | 45 | 5.2 | 6.1 | 0.00 | 0.00 | 0.00 | 67 | 1016.1 |
| 20260505164607 | 54 | 45 | 5.2 | 7.0 | 0.00 | 0.00 | 0.00 | 67 | 1016.1 |
| 20260505164407 | 54 | 45 | 5.2 | 7.8 | 0.00 | 0.00 | 0.00 | 68 | 1016.1 |
| 20260505164207 | 54 | 45 | 6.1 | 7.8 | 0.00 | 0.00 | 0.00 | 68 | 1016.2 |
| 20260505164007 | 54 | 45 | 5.2 | 8.7 | 0.00 | 0.00 | 0.00 | 67 | 1016.2 |
| 20260505163807 | 54 | 46 | 6.1 | 8.7 | 0.00 | 0.00 | 0.00 | 67 | 1016.1 |
| 20260505163608 | 54 | 46 | 6.1 | 8.7 | 0.00 | 0.00 | 0.00 | 67 | 1016.1 |
| 20260505163208 | 54 | 45 | 5.2 | 9.6 | 0.00 | 0.00 | 0.00 | 66 | 1016.0 |
| 20260505163009 | 54 | 46 | 5.2 | 9.6 | 0.00 | 0.00 | 0.00 | 65 | 1016.0 |
| 20260505162608 | 54 | 46 | 5.2 | 9.6 | 0.00 | 0.00 | 0.00 | 66 | 1016.0 |
| 20260505162208 | 54 | 46 | 4.3 | 8.7 | 0.00 | 0.00 | 0.00 | 66 | 1016.0 |
| 20260505162008 | 54 | 46 | 4.3 | 8.7 | 0.00 | 0.00 | 0.00 | 65 | 1016.1 |
| 20260505161808 | 55 | 45 | 4.3 | 8.7 | 0.00 | 0.00 | 0.00 | 65 | 1016.1 |
| 20260505161608 | 55 | 45 | 4.3 | 8.7 | 0.00 | 0.00 | 0.00 | 64 | 1016.0 |
| 20260505161408 | 55 | 45 | 3.5 | 8.7 | 0.00 | 0.00 | 0.00 | 65 | 1016.0 |
| 20260505161208 | 55 | 46 | 3.5 | 8.7 | 0.00 | 0.00 | 0.00 | 64 | 1016.1 |
| 20260505160807 | 55 | 46 | 3.5 | 7.8 | 0.00 | 0.00 | 0.00 | 64 | 1016.1 |
| 20260505160608 | 55 | 46 | 3.5 | 7.8 | 0.00 | 0.00 | 0.00 | 63 | 1016.1 |
| 20260505160208 | 55 | 46 | 4.3 | 7.8 | 0.00 | 0.00 | 0.00 | 64 | 1016.2 |
| 20260505153208 | 54 | 46 | 2.6 | 6.1 | 0.00 | 0.00 | 0.00 | 64 | 1016.2 |
| 20260505152808 | 54 | 46 | 2.6 | 6.1 | 0.00 | 0.00 | 0.00 | 64 | 1016.1 |
| 20260505152608 | 54 | 46 | 1.7 | 6.1 | 0.00 | 0.00 | 0.00 | 64 | 1016.0 |
| 20260505152408 | 54 | 46 | 1.7 | 5.2 | 0.00 | 0.00 | 0.00 | 65 | 1016.1 |
| 20260505152208 | 54 | 46 | 1.7 | 5.2 | 0.00 | 0.00 | 0.00 | 64 | 1016.0 |
| 20260505152008 | 55 | 46 | 1.7 | 4.3 | 0.00 | 0.00 | 0.00 | 68 | 1016.0 |
| 20260505151208 | 55 | 45 | 0.9 | 3.5 | 0.00 | 0.00 | 0.00 | 64 | 1016.2 |
| 20260505151008 | 55 | 45 | 0.9 | 3.5 | 0.00 | 0.00 | 0.00 | 66 | 1016.2 |
| 20260505150808 | 55 | 45 | 0.9 | 3.5 | 0.00 | 0.00 | 0.00 | 67 | 1016.2 |
| 20260505150607 | 55 | 45 | 1.7 | 3.5 | 0.00 | 0.00 | 0.00 | 64 | 1016.2 |
| 20260505150407 | 55 | 45 | 1.7 | 2.6 | 0.00 | 0.00 | 0.00 | 63 | 1016.2 |
| 20260505150207 | 55 | 45 | 1.7 | 2.6 | 0.00 | 0.00 | 0.00 | 63 | 1016.3 |
| 20260505140608 | 53 | 46 | 3.5 | 6.1 | 0.00 | 0.00 | 0.00 | 69 | 1016.2 |
| 20260505140408 | 53 | 46 | 3.5 | 7.0 | 0.00 | 0.00 | 0.00 | 69 | 1016.2 |
| 20260505140208 | 53 | 45 | 3.5 | 7.0 | 0.00 | 0.00 | 0.00 | 68 | 1016.2 |
| 20260505130207 | 54 | 46 | 1.7 | 4.3 | 0.00 | 0.00 | 0.00 | 73 | 1016.4 |
| 20260505124807 | 52 | 46 | 4.3 | 6.1 | 0.00 | 0.00 | 0.00 | 77 | 1016.5 |
| 20260505124607 | 52 | 46 | 4.3 | 7.0 | 0.00 | 0.00 | 0.00 | 76 | 1016.5 |
| 20260505124407 | 52 | 46 | 4.3 | 7.0 | 0.00 | 0.00 | 0.00 | 77 | 1016.5 |
| 20260505124008 | 51 | 45 | 3.5 | 7.8 | 0.00 | 0.00 | 0.00 | 78 | 1016.6 |
| 20260505123808 | 51 | 46 | 3.5 | 7.8 | 0.00 | 0.00 | 0.00 | 78 | 1016.6 |
| 20260505123607 | 51 | 46 | 2.6 | 7.8 | 0.00 | 0.00 | 0.00 | 77 | 1016.6 |
| 20260505123208 | 51 | 45 | 2.6 | 6.1 | 0.00 | 0.00 | 0.00 | 76 | 1016.6 |
| 20260505123007 | 52 | 45 | 2.6 | 5.2 | 0.00 | 0.00 | 0.00 | 75 | 1016.7 |
| 20260505122807 | 52 | 45 | 2.6 | 5.2 | 0.00 | 0.00 | 0.00 | 74 | 1016.7 |
| 20260505122608 | 52 | 46 | 3.5 | 5.2 | 0.00 | 0.00 | 0.00 | 74 | 1016.6 |
| 20260505122408 | 52 | 46 | 3.5 | 7.0 | 0.00 | 0.00 | 0.00 | 73 | 1016.6 |
| 20260505122208 | 52 | 46 | 3.5 | 7.0 | 0.00 | 0.00 | 0.00 | 73 | 1016.5 |
| 20260505122008 | 52 | 46 | 2.6 | 7.0 | 0.00 | 0.00 | 0.00 | 73 | 1016.5 |
| 20260505121608 | 53 | 45 | 1.7 | 7.0 | 0.00 | 0.00 | 0.00 | 70 | 1016.5 |
| 20260505121408 | 53 | 45 | 1.7 | 6.1 | 0.00 | 0.00 | 0.00 | 68 | 1016.6 |
| 20260505121208 | 53 | 45 | 1.7 | 6.1 | 0.00 | 0.00 | 0.00 | 68 | 1016.6 |
| 20260505121008 | 53 | 45 | 1.7 | 5.2 | 0.00 | 0.00 | 0.00 | 67 | 1016.7 |
| 20260505120808 | 53 | 45 | 2.6 | 3.5 | 0.00 | 0.00 | 0.00 | 67 | 1016.6 |
| 20260505120407 | 53 | 46 | 2.6 | 4.3 | 0.00 | 0.00 | 0.00 | 68 | 1016.6 |
| 20260505120007 | 53 | 45 | 2.6 | 4.3 | 0.00 | 0.00 | 0.00 | 68 | 1016.5 |
| 20260505115807 | 53 | 46 | 2.6 | 4.3 | 0.00 | 0.00 | 0.00 | 68 | 1016.5 |
| 20260505115607 | 53 | 46 | 3.5 | 5.2 | 0.00 | 0.00 | 0.00 | 67 | 1016.5 |
| 20260505115208 | 53 | 46 | 3.5 | 5.2 | 0.00 | 0.00 | 0.00 | 68 | 1016.6 |
| 20260505115008 | 53 | 45 | 3.5 | 7.0 | 0.00 | 0.00 | 0.00 | 69 | 1016.7 |
| 20260505114808 | 53 | 45 | 3.5 | 7.0 | 0.00 | 0.00 | 0.00 | 71 | 1016.8 |
| 20260505114608 | 53 | 45 | 3.5 | 7.0 | 0.00 | 0.00 | 0.00 | 71 | 1016.7 |
| 20260505114408 | 53 | 46 | 3.5 | 7.0 | 0.00 | 0.00 | 0.00 | 70 | 1016.9 |
| 20260505114208 | 52 | 46 | 4.3 | 7.0 | 0.00 | 0.00 | 0.00 | 71 | 1016.8 |
| 20260505114008 | 52 | 46 | 4.3 | 7.0 | 0.00 | 0.00 | 0.00 | 71 | 1016.8 |
| 20260505113808 | 52 | 46 | 5.2 | 7.0 | 0.00 | 0.00 | 0.00 | 71 | 1016.8 |
| 20260505113607 | 52 | 45 | 5.2 | 7.8 | 0.00 | 0.00 | 0.00 | 70 | 1016.7 |
| 20260505113407 | 52 | 46 | 4.3 | 7.8 | 0.00 | 0.00 | 0.00 | 70 | 1016.7 |
| 20260505113207 | 52 | 45 | 4.3 | 7.8 | 0.00 | 0.00 | 0.00 | 70 | 1016.6 |
| 20260505113007 | 52 | 45 | 4.3 | 7.8 | 0.00 | 0.00 | 0.00 | 71 | 1016.6 |
| 20260505112807 | 52 | 45 | 3.5 | 7.8 | 0.00 | 0.00 | 0.00 | 71 | 1016.9 |
| 20260505112607 | 52 | 46 | 3.5 | 7.8 | 0.00 | 0.00 | 0.00 | 71 | 1016.9 |
| 20260505112208 | 52 | 46 | 3.5 | 7.8 | 0.00 | 0.00 | 0.00 | 70 | 1016.8 |
| 20260505112007 | 52 | 45 | 4.3 | 7.0 | 0.00 | 0.00 | 0.00 | 70 | 1016.9 |
| 20260505111807 | 52 | 45 | 4.3 | 7.0 | 0.00 | 0.00 | 0.00 | 71 | 1016.8 |
| 20260505111407 | 52 | 46 | 4.3 | 8.7 | 0.00 | 0.00 | 0.00 | 72 | 1016.9 |
| 20260505111207 | 52 | 46 | 4.3 | 9.6 | 0.00 | 0.00 | 0.00 | 72 | 1017.0 |
| 20260505111008 | 52 | 45 | 4.3 | 9.6 | 0.00 | 0.00 | 0.00 | 72 | 1016.9 |
| 20260505110807 | 52 | 46 | 4.3 | 9.6 | 0.00 | 0.00 | 0.00 | 71 | 1016.9 |
| 20260505110607 | 52 | 45 | 4.3 | 9.6 | 0.00 | 0.00 | 0.00 | 72 | 1016.9 |
| 20260505110208 | 52 | 46 | 5.2 | 7.8 | 0.00 | 0.00 | 0.00 | 72 | 1016.8 |
| 20260505102207 | 52 | 46 | 4.3 | 10.4 | 0.00 | 0.00 | 0.00 | 70 | 1016.9 |
| 20260505101207 | 53 | 46 | 3.5 | 7.0 | 0.00 | 0.00 | 0.00 | 69 | 1017.0 |
| 20260505101007 | 53 | 46 | 2.6 | 7.0 | 0.00 | 0.00 | 0.00 | 69 | 1017.0 |
| 20260505100607 | 52 | 45 | 2.6 | 7.0 | 0.00 | 0.00 | 0.00 | 70 | 1017.0 |
| 20260505100407 | 52 | 45 | 2.6 | 7.0 | 0.00 | 0.00 | 0.00 | 70 | 1016.8 |
| 20260505100207 | 52 | 45 | 1.7 | 5.2 | 0.00 | 0.00 | 0.00 | 71 | 1016.9 |
| 20260505100007 | 52 | 45 | 1.7 | 5.2 | 0.00 | 0.00 | 0.00 | 71 | 1016.9 |
| 20260505095807 | 52 | 45 | 1.7 | 5.2 | 0.00 | 0.00 | 0.00 | 72 | 1017.0 |
| 20260505095607 | 52 | 45 | 1.7 | 5.2 | 0.00 | 0.00 | 0.00 | 72 | 1017.0 |
| 20260505095407 | 52 | 45 | 1.7 | 5.2 | 0.00 | 0.00 | 0.00 | 72 | 1016.9 |
| 20260505095208 | 51 | 45 | 1.7 | 4.3 | 0.00 | 0.00 | 0.00 | 71 | 1016.9 |
| 20260505095008 | 51 | 45 | 2.6 | 4.3 | 0.00 | 0.00 | 0.00 | 72 | 1017.0 |
| 20260505094808 | 51 | 45 | 1.7 | 4.3 | 0.00 | 0.00 | 0.00 | 72 | 1017.1 |
| 20260505094608 | 51 | 45 | 2.6 | 4.3 | 0.00 | 0.00 | 0.00 | 74 | 1017.0 |
| 20260505094407 | 51 | 45 | 2.6 | 4.3 | 0.00 | 0.00 | 0.00 | 74 | 1016.9 |
| 20260505094208 | 51 | 45 | 2.6 | 4.3 | 0.00 | 0.00 | 0.00 | 74 | 1016.9 |
| 20260505094008 | 51 | 45 | 2.6 | 6.1 | 0.00 | 0.00 | 0.00 | 74 | 1017.1 |
| 20260505093608 | 51 | 45 | 3.5 | 6.1 | 0.00 | 0.00 | 0.00 | 75 | 1017.1 |
| 20260505093407 | 51 | 46 | 3.5 | 6.1 | 0.00 | 0.00 | 0.00 | 75 | 1017.1 |
| 20260505093207 | 51 | 46 | 3.5 | 7.0 | 0.00 | 0.00 | 0.00 | 76 | 1017.1 |
| 20260505093007 | 50 | 45 | 3.5 | 7.0 | 0.00 | 0.00 | 0.00 | 75 | 1017.1 |
| 20260505092807 | 50 | 46 | 3.5 | 7.0 | 0.00 | 0.00 | 0.00 | 75 | 1017.2 |
| 20260505092607 | 50 | 46 | 3.5 | 7.0 | 0.00 | 0.00 | 0.00 | 75 | 1017.2 |
| 20260505092207 | 50 | 46 | 4.3 | 6.1 | 0.00 | 0.00 | 0.00 | 74 | 1017.2 |
| 20260505092007 | 50 | 45 | 4.3 | 7.0 | 0.00 | 0.00 | 0.00 | 75 | 1017.1 |
| 20260505091807 | 50 | 45 | 4.3 | 8.7 | 0.00 | 0.00 | 0.00 | 75 | 1017.1 |
| 20260505091608 | 50 | 45 | 4.3 | 8.7 | 0.00 | 0.00 | 0.00 | 74 | 1017.1 |
| 20260505091007 | 51 | 46 | 2.6 | 8.7 | 0.00 | 0.00 | 0.00 | 74 | 1017.0 |
| 20260505090608 | 51 | 45 | 1.7 | 6.1 | 0.00 | 0.00 | 0.00 | 74 | 1017.2 |
| 20260505090407 | 51 | 45 | 1.7 | 6.1 | 0.00 | 0.00 | 0.00 | 74 | 1017.2 |
| 20260505090207 | 51 | 45 | 1.7 | 3.5 | 0.00 | 0.00 | 0.00 | 74 | 1017.2 |
| 20260505090009 | 51 | 45 | 1.7 | 3.5 | 0.00 | 0.00 | 0.00 | 74 | 1017.0 |
| 20260505085607 | 51 | 45 | 2.6 | 4.3 | 0.00 | 0.00 | 0.00 | 74 | 1017.2 |
| 20260505085207 | 51 | 46 | 2.6 | 4.3 | 0.00 | 0.00 | 0.00 | 76 | 1017.1 |
| 20260505085007 | 51 | 46 | 2.6 | 4.3 | 0.00 | 0.00 | 0.00 | 77 | 1017.0 |
| 20260505084807 | 51 | 46 | 1.7 | 4.3 | 0.00 | 0.00 | 0.00 | 76 | 1017.0 |
| 20260505084608 | 51 | 46 | 1.7 | 5.2 | 0.00 | 0.00 | 0.00 | 76 | 1017.1 |
| 20260505084407 | 51 | 46 | 1.7 | 5.2 | 0.00 | 0.00 | 0.00 | 77 | 1017.0 |
| 20260505084208 | 51 | 45 | 1.7 | 5.2 | 0.00 | 0.00 | 0.00 | 77 | 1017.1 |
| 20260505084007 | 51 | 45 | 1.7 | 5.2 | 0.00 | 0.00 | 0.00 | 76 | 1017.1 |
| 20260505083607 | 51 | 45 | 0.9 | 3.5 | 0.00 | 0.00 | 0.00 | 76 | 1017.1 |
| 20260505083007 | 51 | 45 | 1.7 | 3.5 | 0.00 | 0.00 | 0.00 | 78 | 1016.9 |
| 20260505082807 | 50 | 45 | 1.7 | 3.5 | 0.00 | 0.00 | 0.00 | 79 | 1016.9 |
| 20260505082623 | 50 | 45 | 1.7 | 3.5 | 0.00 | 0.00 | 0.00 | 79 | 1017.0 |
| 20260505082408 | 50 | 45 | 1.7 | 3.5 | 0.00 | 0.00 | 0.00 | 78 | 1017.0 |
| 20260505082208 | 50 | 45 | 1.7 | 4.3 | 0.00 | 0.00 | 0.00 | 78 | 1017.0 |
| 20260505082007 | 50 | 46 | 1.7 | 5.2 | 0.00 | 0.00 | 0.00 | 79 | 1017.0 |
| 20260505081808 | 50 | 46 | 2.6 | 5.2 | 0.00 | 0.00 | 0.00 | 79 | 1017.1 |
| 20260505081608 | 50 | 45 | 2.6 | 5.2 | 0.00 | 0.00 | 0.00 | 79 | 1017.0 |
| 20260505081407 | 50 | 45 | 2.6 | 5.2 | 0.00 | 0.00 | 0.00 | 79 | 1017.0 |
| 20260505081207 | 50 | 45 | 2.6 | 5.2 | 0.00 | 0.00 | 0.00 | 80 | 1017.0 |
| 20260505081007 | 50 | 45 | 3.5 | 5.2 | 0.00 | 0.00 | 0.00 | 80 | 1017.1 |
| 20260505080807 | 49 | 45 | 3.5 | 6.1 | 0.00 | 0.00 | 0.00 | 80 | 1017.1 |
| 20260505080607 | 49 | 46 | 3.5 | 6.1 | 0.00 | 0.00 | 0.00 | 80 | 1017.1 |
| 20260505080407 | 49 | 46 | 3.5 | 6.1 | 0.00 | 0.00 | 0.00 | 80 | 1017.1 |
| 20260505080207 | 49 | 46 | 3.5 | 6.1 | 0.00 | 0.00 | 0.00 | 80 | 1017.1 |
| 20260505080007 | 49 | 46 | 2.6 | 6.1 | 0.00 | 0.00 | 0.00 | 80 | 1017.1 |
| 20260505075807 | 49 | 45 | 2.6 | 6.1 | 0.00 | 0.00 | 0.00 | 80 | 1017.0 |
| 20260505075607 | 49 | 46 | 2.6 | 6.1 | 0.00 | 0.00 | 0.00 | 80 | 1017.1 |
| 20260505075407 | 49 | 46 | 2.6 | 6.1 | 0.00 | 0.00 | 0.00 | 81 | 1017.2 |
| 20260505075207 | 49 | 46 | 2.6 | 6.1 | 0.00 | 0.00 | 0.00 | 81 | 1017.2 |
| 20260505075007 | 49 | 46 | 2.6 | 6.1 | 0.00 | 0.00 | 0.00 | 81 | 1017.2 |
| 20260505074808 | 49 | 46 | 2.6 | 6.1 | 0.00 | 0.00 | 0.00 | 81 | 1017.1 |
| 20260505074608 | 49 | 46 | 2.6 | 6.1 | 0.00 | 0.00 | 0.00 | 81 | 1017.2 |
| 20260505074207 | 49 | 45 | 2.6 | 5.2 | 0.00 | 0.00 | 0.00 | 81 | 1017.2 |
| 20260505074007 | 49 | 45 | 2.6 | 5.2 | 0.00 | 0.00 | 0.00 | 81 | 1017.1 |
| 20260505073807 | 49 | 46 | 2.6 | 5.2 | 0.00 | 0.00 | 0.00 | 81 | 1017.1 |
| 20260505073607 | 49 | 45 | 2.6 | 5.2 | 0.00 | 0.00 | 0.00 | 81 | 1017.1 |
| 20260505073207 | 48 | 45 | 2.6 | 6.1 | 0.00 | 0.00 | 0.00 | 82 | 1017.3 |
| 20260505073007 | 48 | 46 | 2.6 | 6.1 | 0.00 | 0.00 | 0.00 | 82 | 1017.2 |
| 20260505072808 | 48 | 46 | 2.6 | 6.1 | 0.00 | 0.00 | 0.00 | 82 | 1017.1 |
| 20260505072608 | 48 | 45 | 2.6 | 6.1 | 0.00 | 0.00 | 0.00 | 82 | 1017.2 |
| 20260505072408 | 48 | 46 | 2.6 | 6.1 | 0.00 | 0.00 | 0.00 | 82 | 1017.1 |
| 20260505072208 | 48 | 46 | 2.6 | 5.2 | 0.00 | 0.00 | 0.00 | 82 | 1017.2 |
| 20260505072008 | 48 | 45 | 2.6 | 5.2 | 0.00 | 0.00 | 0.00 | 82 | 1017.2 |
| 20260505071808 | 48 | 46 | 2.6 | 5.2 | 0.00 | 0.00 | 0.00 | 82 | 1017.2 |
| 20260505071607 | 48 | 45 | 2.6 | 5.2 | 0.00 | 0.00 | 0.00 | 82 | 1017.1 |
| 20260505071407 | 48 | 46 | 2.6 | 5.2 | 0.00 | 0.00 | 0.00 | 83 | 1017.1 |
| 20260505071207 | 48 | 45 | 2.6 | 5.2 | 0.00 | 0.00 | 0.00 | 83 | 1017.1 |
| 20260505071007 | 48 | 45 | 2.6 | 5.2 | 0.00 | 0.00 | 0.00 | 83 | 1017.2 |
| 20260505070607 | 47 | 45 | 1.7 | 4.3 | 0.00 | 0.00 | 0.00 | 83 | 1017.2 |
| 20260505070407 | 47 | 45 | 1.7 | 3.5 | 0.00 | 0.00 | 0.00 | 84 | 1017.2 |
| 20260505070207 | 47 | 45 | 1.7 | 3.5 | 0.00 | 0.00 | 0.00 | 83 | 1017.2 |
| 20260505070007 | 47 | 45 | 1.7 | 3.5 | 0.00 | 0.00 | 0.00 | 83 | 1017.3 |
| 20260505065807 | 47 | 45 | 1.7 | 3.5 | 0.00 | 0.00 | 0.00 | 83 | 1017.3 |
| 20260505065408 | 47 | 45 | 0.9 | 3.5 | 0.00 | 0.00 | 0.00 | 83 | 1017.2 |
| 20260505064808 | 47 | 45 | 0.0 | 3.5 | 0.00 | 0.00 | 0.00 | 83 | 1017.1 |
| 20260505064608 | 47 | 0 | 0.9 | 0.0 | 0.00 | 0.00 | 0.00 | 84 | 1017.1 |
| 20260505064407 | 47 | 45 | 0.9 | 1.7 | 0.00 | 0.00 | 0.00 | 84 | 1017.1 |
| 20260505064207 | 47 | 45 | 0.9 | 2.6 | 0.00 | 0.00 | 0.00 | 84 | 1017.1 |
| 20260505063607 | 47 | 45 | 0.9 | 2.6 | 0.00 | 0.00 | 0.00 | 84 | 1017.2 |
| 20260505063407 | 46 | 45 | 0.9 | 2.6 | 0.00 | 0.00 | 0.00 | 84 | 1017.3 |
| 20260505063207 | 46 | 46 | 0.9 | 2.6 | 0.00 | 0.00 | 0.00 | 84 | 1017.2 |
| 20260505063007 | 46 | 45 | 0.9 | 2.6 | 0.00 | 0.00 | 0.00 | 84 | 1017.3 |
| 20260505062807 | 46 | 45 | 0.9 | 2.6 | 0.00 | 0.00 | 0.00 | 84 | 1017.2 |
| 20260505062607 | 46 | 45 | 0.9 | 2.6 | 0.00 | 0.00 | 0.00 | 84 | 1017.2 |
| 20260505062407 | 46 | 45 | 0.9 | 2.6 | 0.00 | 0.00 | 0.00 | 84 | 1017.3 |
| 20260505062207 | 46 | 45 | 0.9 | 2.6 | 0.00 | 0.00 | 0.00 | 84 | 1017.2 |
| 20260505062007 | 46 | 45 | 0.0 | 2.6 | 0.00 | 0.00 | 0.00 | 84 | 1017.2 |
| 20260505061808 | 46 | 45 | 0.0 | 2.6 | 0.00 | 0.00 | 0.00 | 84 | 1017.2 |
| 20260505061608 | 46 | 45 | 0.0 | 1.7 | 0.00 | 0.00 | 0.00 | 84 | 1017.2 |
| 20260505061408 | 46 | 45 | 0.9 | 1.7 | 0.00 | 0.00 | 0.00 | 84 | 1017.2 |
| 20260505061008 | 46 | 45 | 0.9 | 1.7 | 0.00 | 0.00 | 0.00 | 84 | 1017.2 |
| 20260505060607 | 46 | 45 | 0.9 | 2.6 | 0.00 | 0.00 | 0.00 | 84 | 1017.1 |
| 20260505060407 | 46 | 45 | 0.9 | 2.6 | 0.00 | 0.00 | 0.00 | 84 | 1017.1 |
| 20260505060207 | 46 | 45 | 0.9 | 2.6 | 0.00 | 0.00 | 0.00 | 84 | 1017.1 |
| 20260505060007 | 45 | 45 | 0.0 | 2.6 | 0.00 | 0.00 | 0.00 | 84 | 1017.1 |
| 20260505055807 | 45 | 45 | 0.0 | 2.6 | 0.00 | 0.00 | 0.00 | 84 | 1017.1 |
| 20260505055607 | 45 | 45 | 0.0 | 2.6 | 0.00 | 0.00 | 0.00 | 84 | 1017.2 |
| 20260505055407 | 45 | 45 | 0.0 | 2.6 | 0.00 | 0.00 | 0.00 | 85 | 1017.1 |
| 20260505055207 | 45 | 45 | 0.0 | 1.7 | 0.00 | 0.00 | 0.00 | 85 | 1017.2 |
| 20260505055007 | 45 | 0 | 0.9 | 0.0 | 0.00 | 0.00 | 0.00 | 84 | 1017.1 |
| 20260505054807 | 45 | 0 | 0.9 | 0.0 | 0.00 | 0.00 | 0.00 | 85 | 1017.1 |
| 20260505054607 | 45 | 45 | 0.9 | 2.6 | 0.00 | 0.00 | 0.00 | 85 | 1017.1 |
| 20260505054407 | 45 | 45 | 0.9 | 3.5 | 0.00 | 0.00 | 0.00 | 85 | 1017.0 |
| 20260505054207 | 45 | 45 | 0.9 | 3.5 | 0.00 | 0.00 | 0.00 | 84 | 1017.0 |
| 20260505054007 | 45 | 45 | 0.9 | 3.5 | 0.00 | 0.00 | 0.00 | 84 | 1017.0 |
| 20260505053807 | 45 | 45 | 1.7 | 3.5 | 0.00 | 0.00 | 0.00 | 84 | 1017.0 |
| 20260505053408 | 45 | 45 | 1.7 | 2.6 | 0.00 | 0.00 | 0.00 | 84 | 1017.0 |
| 20260505053207 | 45 | 45 | 1.7 | 2.6 | 0.00 | 0.00 | 0.00 | 84 | 1017.0 |
| 20260505053008 | 45 | 45 | 1.7 | 3.5 | 0.00 | 0.00 | 0.00 | 84 | 1017.0 |
| 20260505052808 | 45 | 45 | 1.7 | 3.5 | 0.00 | 0.00 | 0.00 | 84 | 1017.0 |
| 20260505052608 | 45 | 45 | 1.7 | 3.5 | 0.00 | 0.00 | 0.00 | 84 | 1017.0 |
| 20260505052407 | 45 | 45 | 1.7 | 3.5 | 0.00 | 0.00 | 0.00 | 84 | 1017.0 |
| 20260505052207 | 45 | 45 | 1.7 | 4.3 | 0.00 | 0.00 | 0.00 | 84 | 1016.9 |
| 20260505052007 | 45 | 46 | 1.7 | 4.3 | 0.00 | 0.00 | 0.00 | 84 | 1017.0 |
| 20260505051807 | 45 | 45 | 1.7 | 4.3 | 0.00 | 0.00 | 0.00 | 84 | 1017.0 |
| 20260505051607 | 45 | 45 | 1.7 | 4.3 | 0.00 | 0.00 | 0.00 | 84 | 1016.9 |
| 20260505051407 | 45 | 45 | 2.6 | 4.3 | 0.00 | 0.00 | 0.00 | 84 | 1017.0 |
| 20260505051007 | 45 | 45 | 2.6 | 3.5 | 0.00 | 0.00 | 0.00 | 84 | 1016.9 |
| 20260505050807 | 45 | 45 | 2.6 | 3.5 | 0.00 | 0.00 | 0.00 | 84 | 1017.0 |
| 20260505050607 | 45 | 45 | 2.6 | 3.5 | 0.00 | 0.00 | 0.00 | 84 | 1016.9 |
| 20260505050407 | 45 | 45 | 2.6 | 3.5 | 0.00 | 0.00 | 0.00 | 84 | 1016.9 |
| 20260505050207 | 45 | 45 | 2.6 | 3.5 | 0.00 | 0.00 | 0.00 | 84 | 1016.9 |
| 20260505041607 | 44 | 45 | 1.7 | 4.3 | 0.00 | 0.00 | 0.00 | 83 | 1016.8 |
| 20260505041407 | 44 | 46 | 1.7 | 4.3 | 0.00 | 0.00 | 0.00 | 83 | 1016.9 |
| 20260505041207 | 44 | 45 | 1.7 | 4.3 | 0.00 | 0.00 | 0.00 | 83 | 1016.9 |
| 20260505040807 | 44 | 45 | 0.9 | 4.3 | 0.00 | 0.00 | 0.00 | 84 | 1017.0 |
| 20260505040607 | 44 | 45 | 0.0 | 3.5 | 0.00 | 0.00 | 0.00 | 84 | 1017.0 |
| 20260505040407 | 44 | 45 | 0.0 | 3.5 | 0.00 | 0.00 | 0.00 | 84 | 1016.9 |
| 20260505040207 | 44 | 45 | 0.0 | 2.6 | 0.00 | 0.00 | 0.00 | 83 | 1017.0 |
| 20260505040007 | 44 | 45 | 0.0 | 1.7 | 0.00 | 0.00 | 0.00 | 83 | 1017.0 |
| 20260505035807 | 44 | 45 | 0.9 | 0.9 | 0.00 | 0.00 | 0.00 | 83 | 1016.9 |
| 20260505035607 | 44 | 45 | 0.9 | 1.7 | 0.00 | 0.00 | 0.00 | 83 | 1016.9 |
| 20260505035406 | 44 | 45 | 0.9 | 1.7 | 0.00 | 0.00 | 0.00 | 83 | 1017.0 |
| 20260505035207 | 44 | 45 | 1.7 | 3.5 | 0.00 | 0.00 | 0.00 | 83 | 1017.0 |
| 20260505035007 | 44 | 45 | 1.7 | 3.5 | 0.00 | 0.00 | 0.00 | 83 | 1017.0 |
| 20260505034806 | 44 | 45 | 2.6 | 3.5 | 0.00 | 0.00 | 0.00 | 83 | 1017.1 |
| 20260505034607 | 44 | 45 | 2.6 | 3.5 | 0.00 | 0.00 | 0.00 | 83 | 1017.1 |
| 20260505034407 | 44 | 45 | 2.6 | 3.5 | 0.00 | 0.00 | 0.00 | 83 | 1017.1 |
| 20260505034207 | 44 | 45 | 1.7 | 3.5 | 0.00 | 0.00 | 0.00 | 83 | 1017.0 |
| 20260505034007 | 44 | 45 | 1.7 | 3.5 | 0.00 | 0.00 | 0.00 | 83 | 1017.1 |
| 20260505033807 | 44 | 45 | 1.7 | 3.5 | 0.00 | 0.00 | 0.00 | 83 | 1017.1 |
| 20260505033607 | 44 | 45 | 1.7 | 3.5 | 0.00 | 0.00 | 0.00 | 82 | 1017.2 |
| 20260505032807 | 45 | 45 | 1.7 | 3.5 | 0.00 | 0.00 | 0.00 | 82 | 1017.2 |
| 20260505032607 | 45 | 45 | 1.7 | 3.5 | 0.00 | 0.00 | 0.00 | 82 | 1017.1 |
| 20260505032407 | 45 | 45 | 2.6 | 3.5 | 0.00 | 0.00 | 0.00 | 82 | 1017.2 |
| 20260505032207 | 45 | 45 | 2.6 | 4.3 | 0.00 | 0.00 | 0.00 | 82 | 1017.1 |
| 20260505032007 | 45 | 45 | 2.6 | 4.3 | 0.00 | 0.00 | 0.00 | 82 | 1017.2 |
| 20260505031807 | 45 | 45 | 2.6 | 4.3 | 0.00 | 0.00 | 0.00 | 82 | 1017.1 |
| 20260505031407 | 45 | 46 | 1.7 | 4.3 | 0.00 | 0.00 | 0.00 | 82 | 1017.1 |
| 20260505031207 | 45 | 45 | 1.7 | 4.3 | 0.00 | 0.00 | 0.00 | 82 | 1017.1 |
| 20260505030807 | 45 | 45 | 1.7 | 4.3 | 0.00 | 0.00 | 0.00 | 82 | 1017.1 |
| 20260505030607 | 45 | 45 | 1.7 | 3.5 | 0.00 | 0.00 | 0.00 | 82 | 1017.2 |
| 20260505030407 | 45 | 45 | 2.6 | 3.5 | 0.00 | 0.00 | 0.00 | 81 | 1017.1 |
| 20260505030207 | 45 | 45 | 2.6 | 3.5 | 0.00 | 0.00 | 0.00 | 81 | 1017.1 |
| 20260505030007 | 45 | 46 | 2.6 | 4.3 | 0.00 | 0.00 | 0.00 | 81 | 1017.2 |
| 20260505025807 | 45 | 45 | 2.6 | 4.3 | 0.00 | 0.00 | 0.00 | 81 | 1017.2 |
| 20260505025607 | 45 | 45 | 2.6 | 4.3 | 0.00 | 0.00 | 0.00 | 81 | 1017.2 |
| 20260505025407 | 45 | 46 | 2.6 | 5.2 | 0.00 | 0.00 | 0.00 | 81 | 1017.2 |
| 20260505025207 | 45 | 46 | 2.6 | 5.2 | 0.00 | 0.00 | 0.00 | 81 | 1017.2 |
| 20260505025007 | 45 | 46 | 2.6 | 5.2 | 0.00 | 0.00 | 0.00 | 81 | 1017.2 |
| 20260505024407 | 45 | 46 | 2.6 | 4.3 | 0.00 | 0.00 | 0.00 | 81 | 1017.1 |
| 20260505024207 | 45 | 45 | 2.6 | 4.3 | 0.00 | 0.00 | 0.00 | 81 | 1017.2 |
| 20260505024007 | 45 | 45 | 2.6 | 4.3 | 0.00 | 0.00 | 0.00 | 81 | 1017.3 |
| 20260505023608 | 45 | 45 | 2.6 | 4.3 | 0.00 | 0.00 | 0.00 | 80 | 1017.3 |
| 20260505023207 | 45 | 45 | 2.6 | 4.3 | 0.00 | 0.00 | 0.00 | 80 | 1017.2 |
| 20260505022807 | 45 | 46 | 2.6 | 4.3 | 0.00 | 0.00 | 0.00 | 80 | 1017.3 |
| 20260505022607 | 45 | 45 | 2.6 | 4.3 | 0.00 | 0.00 | 0.00 | 80 | 1017.3 |
| 20260505022007 | 46 | 45 | 1.7 | 4.3 | 0.00 | 0.00 | 0.00 | 80 | 1017.3 |
| 20260505021807 | 46 | 45 | 1.7 | 4.3 | 0.00 | 0.00 | 0.00 | 80 | 1017.3 |
| 20260505021607 | 46 | 45 | 1.7 | 3.5 | 0.00 | 0.00 | 0.00 | 80 | 1017.2 |
| 20260505021207 | 46 | 45 | 0.9 | 3.5 | 0.00 | 0.00 | 0.00 | 80 | 1017.2 |
| 20260505021007 | 46 | 45 | 0.9 | 3.5 | 0.00 | 0.00 | 0.00 | 80 | 1017.2 |
| 20260505020806 | 46 | 45 | 0.9 | 2.6 | 0.00 | 0.00 | 0.00 | 80 | 1017.1 |
| 20260505020407 | 46 | 45 | 1.7 | 3.5 | 0.00 | 0.00 | 0.00 | 80 | 1017.2 |
| 20260505020007 | 46 | 45 | 1.7 | 3.5 | 0.00 | 0.00 | 0.00 | 80 | 1017.3 |
| 20260505015807 | 46 | 45 | 1.7 | 3.5 | 0.00 | 0.00 | 0.00 | 80 | 1017.3 |
| 20260505015607 | 46 | 45 | 1.7 | 3.5 | 0.00 | 0.00 | 0.00 | 80 | 1017.4 |
| 20260505015207 | 46 | 45 | 1.7 | 3.5 | 0.00 | 0.00 | 0.00 | 80 | 1017.4 |
| 20260505015007 | 46 | 45 | 1.7 | 3.5 | 0.00 | 0.00 | 0.00 | 81 | 1017.4 |
| 20260505014807 | 46 | 45 | 1.7 | 3.5 | 0.00 | 0.00 | 0.00 | 81 | 1017.4 |
| 20260505014407 | 46 | 45 | 0.9 | 3.5 | 0.00 | 0.00 | 0.00 | 81 | 1017.5 |
| 20260505014007 | 45 | 45 | 0.9 | 2.6 | 0.00 | 0.00 | 0.00 | 82 | 1017.5 |
| 20260505013807 | 45 | 45 | 0.9 | 2.6 | 0.00 | 0.00 | 0.00 | 82 | 1017.5 |
| 20260505013607 | 45 | 45 | 0.9 | 2.6 | 0.00 | 0.00 | 0.00 | 82 | 1017.5 |
| 20260505013206 | 45 | 45 | 0.9 | 2.6 | 0.00 | 0.00 | 0.00 | 82 | 1017.4 |
| 20260505013007 | 45 | 45 | 0.9 | 2.6 | 0.00 | 0.00 | 0.00 | 82 | 1017.4 |
| 20260505012807 | 45 | 45 | 0.9 | 2.6 | 0.00 | 0.00 | 0.00 | 83 | 1017.5 |
| 20260505012607 | 45 | 45 | 0.9 | 2.6 | 0.00 | 0.00 | 0.00 | 83 | 1017.5 |
| 20260505012207 | 45 | 45 | 0.9 | 2.6 | 0.00 | 0.00 | 0.00 | 83 | 1017.6 |
| 20260505012007 | 45 | 45 | 0.9 | 2.6 | 0.00 | 0.00 | 0.00 | 83 | 1017.5 |
| 20260505011806 | 44 | 45 | 0.9 | 2.6 | 0.00 | 0.00 | 0.00 | 84 | 1017.5 |
| 20260505011607 | 44 | 45 | 0.9 | 2.6 | 0.00 | 0.00 | 0.00 | 84 | 1017.6 |
| 20260505011207 | 44 | 45 | 0.9 | 2.6 | 0.00 | 0.00 | 0.00 | 84 | 1017.6 |
| 20260505011007 | 44 | 45 | 0.0 | 1.7 | 0.00 | 0.00 | 0.00 | 85 | 1017.6 |
| 20260505010807 | 44 | 45 | 0.0 | 1.7 | 0.00 | 0.00 | 0.00 | 85 | 1017.6 |
| 20260505010407 | 44 | 45 | 0.0 | 1.7 | 0.00 | 0.00 | 0.00 | 85 | 1017.6 |
| 20260505010207 | 44 | 45 | 0.0 | 1.7 | 0.00 | 0.00 | 0.00 | 86 | 1017.6 |
| 20260505010007 | 44 | 0 | 0.0 | 0.0 | 0.00 | 0.00 | 0.00 | 86 | 1017.7 |
| 20260505005607 | 44 | 0 | 0.0 | 0.0 | 0.00 | 0.00 | 0.00 | 87 | 1017.7 |
| 20260505005407 | 44 | 0 | 0.0 | 0.0 | 0.00 | 0.00 | 0.00 | 86 | 1017.6 |
| 20260505005207 | 44 | 0 | 0.0 | 0.0 | 0.00 | 0.00 | 0.00 | 87 | 1017.7 |
| 20260505005007 | 43 | 0 | 0.0 | 0.0 | 0.00 | 0.00 | 0.00 | 87 | 1017.7 |
| 20260505004807 | 43 | 0 | 0.0 | 0.0 | 0.00 | 0.00 | 0.00 | 87 | 1017.6 |
| 20260505004407 | 43 | 0 | 0.0 | 0.0 | 0.00 | 0.00 | 0.00 | 87 | 1017.6 |
| 20260505004007 | 43 | 0 | 0.0 | 0.0 | 0.00 | 0.00 | 0.00 | 87 | 1017.6 |
| 20260505003807 | 43 | 0 | 0.0 | 0.0 | 0.00 | 0.00 | 0.00 | 87 | 1017.6 |
| 20260505003606 | 43 | 0 | 0.0 | 0.0 | 0.00 | 0.00 | 0.00 | 87 | 1017.5 |
| 20260505003407 | 43 | 0 | 0.0 | 0.0 | 0.00 | 0.00 | 0.00 | 87 | 1017.6 |
| 20260505003207 | 43 | 0 | 0.0 | 0.0 | 0.00 | 0.00 | 0.00 | 87 | 1017.6 |
| 20260505002807 | 43 | 0 | 0.0 | 0.0 | 0.00 | 0.00 | 0.00 | 86 | 1017.5 |
| 20260505002607 | 43 | 0 | 0.0 | 0.0 | 0.00 | 0.00 | 0.00 | 86 | 1017.6 |
| 20260505002406 | 43 | 0 | 0.0 | 0.0 | 0.00 | 0.00 | 0.00 | 86 | 1017.7 |
| 20260505002207 | 43 | 0 | 0.0 | 0.0 | 0.00 | 0.00 | 0.00 | 86 | 1017.6 |
| 20260505002007 | 43 | 0 | 0.0 | 0.0 | 0.00 | 0.00 | 0.00 | 86 | 1017.7 |
| 20260505001806 | 43 | 0 | 0.0 | 0.0 | 0.00 | 0.00 | 0.00 | 86 | 1017.7 |
| 20260505001607 | 43 | 0 | 0.0 | 0.0 | 0.00 | 0.00 | 0.00 | 86 | 1017.7 |
| 20260505001407 | 43 | 0 | 0.0 | 0.0 | 0.00 | 0.00 | 0.00 | 86 | 1017.7 |
| 20260505001206 | 43 | 0 | 0.0 | 0.0 | 0.00 | 0.00 | 0.00 | 86 | 1017.6 |
| 20260505000606 | 43 | 0 | 0.0 | 0.0 | 0.00 | 0.00 | 0.00 | 86 | 1017.7 |
| 20260505000407 | 43 | 0 | 0.9 | 0.0 | 0.00 | 0.00 | 0.00 | 86 | 1017.8 |
| 20260505000006 | 43 | 45 | 0.9 | 2.6 | 0.00 | 0.00 | 0.00 | 86 | 1017.8 |
| 20260504235807 | 43 | 45 | 0.9 | 2.6 | 0.00 | 0.00 | 0.00 | 86 | 1017.7 |
| 20260504235607 | 43 | 45 | 0.9 | 2.6 | 0.00 | 0.00 | 0.00 | 86 | 1017.7 |
| 20260504235406 | 43 | 45 | 0.9 | 2.6 | 0.00 | 0.00 | 0.00 | 87 | 1017.7 |
| 20260504235207 | 43 | 45 | 0.0 | 2.6 | 0.00 | 0.00 | 0.00 | 87 | 1017.7 |
| 20260504235007 | 42 | 45 | 0.0 | 1.7 | 0.00 | 0.00 | 0.00 | 87 | 1017.6 |
| 20260504234807 | 42 | 45 | 0.0 | 1.7 | 0.00 | 0.00 | 0.00 | 87 | 1017.6 |
| 20260504234606 | 42 | 45 | 0.0 | 1.7 | 0.00 | 0.00 | 0.00 | 87 | 1017.6 |
| 20260504234407 | 42 | 45 | 0.0 | 1.7 | 0.00 | 0.00 | 0.00 | 86 | 1017.6 |
| 20260504234207 | 41 | 45 | 0.0 | 0.9 | 0.00 | 0.00 | 0.00 | 86 | 1017.7 |
| 20260504234007 | 41 | 0 | 0.0 | 0.0 | 0.00 | 0.00 | 0.00 | 86 | 1017.6 |
| 20260504233807 | 41 | 0 | 0.0 | 0.0 | 0.00 | 0.00 | 0.00 | 86 | 1017.7 |
| 20260504233607 | 41 | 0 | 0.0 | 0.0 | 0.00 | 0.00 | 0.00 | 86 | 1017.7 |
| 20260504233407 | 41 | 0 | 0.0 | 0.0 | 0.00 | 0.00 | 0.00 | 85 | 1017.7 |
| 20260504233207 | 41 | 0 | 0.9 | 0.0 | 0.00 | 0.00 | 0.00 | 85 | 1017.7 |
| 20260504233007 | 41 | 45 | 0.9 | 0.9 | 0.00 | 0.00 | 0.00 | 85 | 1017.6 |
| 20260504232607 | 41 | 45 | 0.9 | 1.7 | 0.00 | 0.00 | 0.00 | 85 | 1017.6 |
| 20260504232407 | 41 | 45 | 0.9 | 1.7 | 0.00 | 0.00 | 0.00 | 85 | 1017.6 |
| 20260504232207 | 42 | 45 | 0.9 | 1.7 | 0.00 | 0.00 | 0.00 | 85 | 1017.7 |
| 20260504232007 | 42 | 45 | 0.9 | 1.7 | 0.00 | 0.00 | 0.00 | 86 | 1017.6 |
| 20260504231807 | 42 | 45 | 0.0 | 1.7 | 0.00 | 0.00 | 0.00 | 86 | 1017.6 |
| 20260504231607 | 42 | 45 | 0.0 | 1.7 | 0.00 | 0.00 | 0.00 | 85 | 1017.6 |
| 20260504231407 | 41 | 45 | 0.0 | 1.7 | 0.00 | 0.00 | 0.00 | 85 | 1017.6 |
| 20260504231206 | 41 | 45 | 0.9 | 1.7 | 0.00 | 0.00 | 0.00 | 85 | 1017.7 |
| 20260504231007 | 41 | 45 | 0.9 | 1.7 | 0.00 | 0.00 | 0.00 | 84 | 1017.6 |
| 20260504230807 | 41 | 45 | 0.9 | 1.7 | 0.00 | 0.00 | 0.00 | 84 | 1017.6 |
| 20260504230608 | 41 | 45 | 0.9 | 1.7 | 0.00 | 0.00 | 0.00 | 85 | 1017.7 |
| 20260504230407 | 42 | 45 | 0.9 | 1.7 | 0.00 | 0.00 | 0.00 | 84 | 1017.6 |
| 20260504230207 | 42 | 45 | 0.9 | 2.6 | 0.00 | 0.00 | 0.00 | 84 | 1017.6 |
| 20260504225807 | 42 | 45 | 0.0 | 2.6 | 0.00 | 0.00 | 0.00 | 84 | 1017.7 |
| 20260504225607 | 42 | 45 | 0.0 | 2.6 | 0.00 | 0.00 | 0.00 | 84 | 1017.7 |
| 20260504225407 | 42 | 45 | 0.0 | 2.6 | 0.00 | 0.00 | 0.00 | 84 | 1017.7 |
| 20260504225207 | 42 | 45 | 0.0 | 1.7 | 0.00 | 0.00 | 0.00 | 84 | 1017.7 |
| 20260504225007 | 42 | 0 | 0.0 | 0.0 | 0.00 | 0.00 | 0.00 | 84 | 1017.7 |
| 20260504224807 | 42 | 0 | 0.0 | 0.0 | 0.00 | 0.00 | 0.00 | 84 | 1017.6 |
| 20260504224607 | 42 | 0 | 0.0 | 0.0 | 0.00 | 0.00 | 0.00 | 84 | 1017.7 |
| 20260504224407 | 42 | 0 | 0.0 | 0.0 | 0.00 | 0.00 | 0.00 | 84 | 1017.7 |
| 20260504224004 | 42 | 0 | 0.0 | 0.0 | 0.00 | 0.00 | 0.00 | 83 | 1017.7 |
| 20260504223807 | 43 | 0 | 0.0 | 0.0 | 0.00 | 0.00 | 0.00 | 83 | 1017.8 |
| 20260504223606 | 43 | 0 | 0.0 | 0.0 | 0.00 | 0.00 | 0.00 | 83 | 1017.7 |
| 20260504223405 | 43 | 0 | 0.0 | 0.0 | 0.00 | 0.00 | 0.00 | 83 | 1017.6 |
| 20260504223007 | 43 | 0 | 0.0 | 0.0 | 0.00 | 0.00 | 0.00 | 82 | 1017.6 |
| 20260504222808 | 43 | 0 | 0.0 | 0.0 | 0.00 | 0.00 | 0.00 | 82 | 1017.6 |
| 20260504222607 | 43 | 0 | 0.9 | 0.0 | 0.00 | 0.00 | 0.00 | 82 | 1017.5 |
| 20260504222407 | 44 | 45 | 0.9 | 1.7 | 0.00 | 0.00 | 0.00 | 82 | 1017.5 |
| 20260504222207 | 44 | 45 | 0.9 | 1.7 | 0.00 | 0.00 | 0.00 | 82 | 1017.5 |
| 20260504222007 | 44 | 45 | 0.9 | 1.7 | 0.00 | 0.00 | 0.00 | 82 | 1017.4 |
| 20260504221608 | 44 | 45 | 0.9 | 1.7 | 0.00 | 0.00 | 0.00 | 82 | 1017.5 |
| 20260504221407 | 45 | 45 | 0.9 | 1.7 | 0.00 | 0.00 | 0.00 | 82 | 1017.5 |
| 20260504221007 | 44 | 45 | 1.7 | 1.7 | 0.00 | 0.00 | 0.00 | 82 | 1017.5 |
| 20260504220807 | 44 | 45 | 1.7 | 1.7 | 0.00 | 0.00 | 0.00 | 82 | 1017.5 |
| 20260504220608 | 45 | 45 | 1.7 | 2.6 | 0.00 | 0.00 | 0.00 | 82 | 1017.4 |
| 20260504220207 | 45 | 45 | 1.7 | 2.6 | 0.00 | 0.00 | 0.00 | 82 | 1017.5 |
| 20260504220007 | 45 | 45 | 0.9 | 2.6 | 0.00 | 0.00 | 0.00 | 82 | 1017.6 |
| 20260504215807 | 45 | 45 | 0.9 | 2.6 | 0.00 | 0.00 | 0.00 | 82 | 1017.6 |
| 20260504215408 | 45 | 45 | 0.0 | 1.7 | 0.00 | 0.00 | 0.00 | 82 | 1017.5 |
| 20260504215008 | 45 | 45 | 0.9 | 1.7 | 0.00 | 0.00 | 0.00 | 81 | 1017.5 |
| 20260504214808 | 45 | 45 | 0.9 | 1.7 | 0.00 | 0.00 | 0.00 | 80 | 1017.5 |
| 20260504214608 | 45 | 45 | 0.9 | 1.7 | 0.00 | 0.00 | 0.00 | 80 | 1017.5 |
| 20260504214407 | 45 | 45 | 1.7 | 2.6 | 0.00 | 0.00 | 0.00 | 80 | 1017.4 |
| 20260504214207 | 46 | 45 | 1.7 | 2.6 | 0.00 | 0.00 | 0.00 | 80 | 1017.5 |
| 20260504214008 | 46 | 45 | 1.7 | 2.6 | 0.00 | 0.00 | 0.00 | 80 | 1017.5 |
| 20260504213807 | 46 | 45 | 1.7 | 2.6 | 0.00 | 0.00 | 0.00 | 79 | 1017.5 |
| 20260504213608 | 46 | 45 | 1.7 | 2.6 | 0.00 | 0.00 | 0.00 | 79 | 1017.6 |
| 20260504213408 | 46 | 45 | 1.7 | 2.6 | 0.00 | 0.00 | 0.00 | 79 | 1017.6 |
| 20260504213208 | 46 | 45 | 0.9 | 2.6 | 0.00 | 0.00 | 0.00 | 79 | 1017.6 |
| 20260504213008 | 47 | 45 | 0.9 | 2.6 | 0.00 | 0.00 | 0.00 | 79 | 1017.6 |
| 20260504212807 | 47 | 45 | 0.9 | 2.6 | 0.00 | 0.00 | 0.00 | 78 | 1017.6 |
| 20260504212607 | 47 | 45 | 1.7 | 1.7 | 0.00 | 0.00 | 0.00 | 78 | 1017.6 |
| 20260504212408 | 47 | 45 | 1.7 | 2.6 | 0.00 | 0.00 | 0.00 | 78 | 1017.6 |
| 20260504212208 | 47 | 45 | 1.7 | 2.6 | 0.00 | 0.00 | 0.00 | 77 | 1017.5 |
| 20260504211807 | 48 | 45 | 1.7 | 3.5 | 0.00 | 0.00 | 0.00 | 77 | 1017.5 |
| 20260504211607 | 48 | 45 | 0.9 | 3.5 | 0.00 | 0.00 | 0.00 | 76 | 1017.3 |
| 20260504211407 | 48 | 45 | 0.9 | 3.5 | 0.00 | 0.00 | 0.00 | 76 | 1017.5 |
| 20260504211207 | 48 | 45 | 0.9 | 3.5 | 0.00 | 0.00 | 0.00 | 76 | 1017.3 |
| 20260504211007 | 48 | 45 | 0.9 | 2.6 | 0.00 | 0.00 | 0.00 | 76 | 1017.3 |
| 20260504210807 | 48 | 45 | 0.9 | 2.6 | 0.00 | 0.00 | 0.00 | 75 | 1017.4 |
| 20260504210608 | 49 | 45 | 0.9 | 2.6 | 0.00 | 0.00 | 0.00 | 75 | 1017.4 |
| 20260504210208 | 49 | 45 | 0.9 | 1.7 | 0.00 | 0.00 | 0.00 | 74 | 1017.4 |
| 20260504210007 | 49 | 45 | 0.9 | 1.7 | 0.00 | 0.00 | 0.00 | 74 | 1017.4 |
| 20260504205807 | 49 | 45 | 0.9 | 1.7 | 0.00 | 0.00 | 0.00 | 73 | 1017.4 |
| 20260504205607 | 50 | 45 | 0.9 | 1.7 | 0.00 | 0.00 | 0.00 | 73 | 1017.4 |
| 20260504205405 | 50 | 45 | 0.9 | 1.7 | 0.00 | 0.00 | 0.00 | 73 | 1017.4 |
| 20260504205207 | 50 | 45 | 1.7 | 2.6 | 0.00 | 0.00 | 0.00 | 72 | 1017.3 |
| 20260504205007 | 50 | 45 | 1.7 | 2.6 | 0.00 | 0.00 | 0.00 | 72 | 1017.2 |
| 20260504204808 | 50 | 45 | 1.7 | 2.6 | 0.00 | 0.00 | 0.00 | 72 | 1017.2 |
| 20260504204608 | 50 | 45 | 1.7 | 2.6 | 0.00 | 0.00 | 0.00 | 72 | 1017.2 |
| 20260504204408 | 50 | 45 | 1.7 | 3.5 | 0.00 | 0.00 | 0.00 | 72 | 1017.2 |
| 20260504204208 | 50 | 45 | 1.7 | 3.5 | 0.00 | 0.00 | 0.00 | 72 | 1017.1 |
| 20260504204007 | 50 | 45 | 1.7 | 3.5 | 0.00 | 0.00 | 0.00 | 72 | 1017.2 |
| 20260504203807 | 50 | 45 | 1.7 | 3.5 | 0.00 | 0.00 | 0.00 | 72 | 1017.2 |
| 20260504203607 | 51 | 45 | 1.7 | 3.5 | 0.00 | 0.00 | 0.00 | 72 | 1017.2 |
| 20260504203407 | 51 | 45 | 1.7 | 3.5 | 0.00 | 0.00 | 0.00 | 72 | 1017.2 |
| 20260504203207 | 51 | 45 | 1.7 | 3.5 | 0.00 | 0.00 | 0.00 | 72 | 1017.2 |
| 20260504203007 | 51 | 45 | 1.7 | 3.5 | 0.00 | 0.00 | 0.00 | 71 | 1017.2 |
| 20260504202807 | 51 | 45 | 2.6 | 3.5 | 0.00 | 0.00 | 0.00 | 72 | 1017.2 |
| 20260504202607 | 51 | 45 | 2.6 | 3.5 | 0.00 | 0.00 | 0.00 | 72 | 1017.2 |
| 20260504202407 | 51 | 45 | 2.6 | 4.3 | 0.00 | 0.00 | 0.00 | 72 | 1017.2 |
| 20260504201607 | 51 | 45 | 2.6 | 4.3 | 0.00 | 0.00 | 0.00 | 72 | 1017.0 |
| 20260504201407 | 51 | 46 | 2.6 | 4.3 | 0.00 | 0.00 | 0.00 | 72 | 1017.0 |
| 20260504200608 | 52 | 45 | 1.7 | 5.2 | 0.00 | 0.00 | 0.00 | 72 | 1016.9 |
| 20260504200408 | 52 | 45 | 1.7 | 5.2 | 0.00 | 0.00 | 0.00 | 72 | 1016.9 |
| 20260504200207 | 52 | 45 | 1.7 | 5.2 | 0.00 | 0.00 | 0.00 | 71 | 1016.9 |